www.pogodaiklimat.ru

Погода и климат >> Архив погоды >> Индонезия >> Сабу


ПОГОДА в Сабу

  • Прогноз погоды в Сабу
  • Монитор погоды в Сабу

АРХИВ ПОГОДЫ в Сабу

Время (UTC), дата Ветер
(напр.,м/с)
 
Видим.   Явления Облачность Т
(С)
Тd
(С)
f
(%)
Тe
(С)
Тes
(С)
Комфортность P
(гПа)
Po
(гПа)
Тmin
(С)
Tmax
(С)
R
(мм)
R24
(мм)
S
(см)
09 12.02 З 1 14 км 6/3 420 м
[Cu hum Ac trans Ci fib]
+31.6 +26.6 75 +49 +50 опасность
перегрева
1011.9 1009.7
12 12.02 штиль 0 6000 м 4/3 420 м
[Cu hum Ac trans Ci fib]
+28.9 +26.0 84 +43 +43 опасность
перегрева
1013.4 1011.2 +32.3
15 12.02 З 2 6000 м 4/3 420 м
[Cu hum Ci fib]
+27.8 +25.1 85 +40 +40 очень
душно
1013.9 1011.6
18 12.02 Ю 1 6000 м 4/3 450 м
[Cu hum Ci fib]
+26.0 +24.9 94 +37 +37 очень
душно
1012.8 1010.6
00 13.02 СЗ 2 10 км в посл. час дождь 8/5 420 м
[Cu med, cong Ac As Ci fib]
+28.8 +26.0 85 +43 +46 опасность
перегрева
1014.9 1012.7 +25.4 0.0
03 13.02 З 3 14 км осадки на расстоянии 6/4 420 м
[Cu med, cong Ac As Ci sp]
+31.7 +27.2 77 +50 +59 опасность
перегрева
1014.7 1012.5
06 13.02 З 2 12 км {гроза, дождь} 8/4 420 м
[Cu med, cong Ac As Ci fib]
+30.7 +26.9 80 +48 +55 опасность
перегрева
1012.9 1010.7 0.0
09 13.02 З 4 14 км 8/3 420 м
[Cu hum Ac As Ci fib]
+30.1 +26.0 79 +45 +46 опасность
перегрева
1012.1 1009.8
12 13.02 З 2 6000 м 5/3 420 м
[Cu hum Ac As Ci fib]
+28.4 +25.2 83 +41 +41 опасность
перегрева
1014.7 1012.5 +32.0
15 13.02 Ю 1 6000 м 4/3 450 м
[Cu hum Ac As Ci fib]
+26.8 +25.2 91 +39 +39 очень
душно
1014.8 1012.6
18 13.02 Ю 2 6000 м 1/1 480 м
[Cu hum Ac As Ci fib]
+26.0 +25.1 95 +37 +37 очень
душно
1012.9 1010.6
00 14.02 З 3 12 км 5/5 420 м
[Cu med, cong Ci fib]
+28.7 +25.9 85 +43 +46 опасность
перегрева
1013.3 1011.1 +26.0 0.0
03 14.02 З 3 14 км 4/4 420 м
[Cu med, cong Ci fib]
+31.3 +26.8 77 +49 +59 опасность
перегрева
1013.4 1011.2
06 14.02 З 3 14 км 4/4 450 м
[Cu med, cong Ci fib]
+31.8 +26.8 75 +49 +57 опасность
перегрева
1011.5 1009.3
09 14.02 ЮЗ 2 12 км 4/3 450 м
[Cu hum Ci fib]
+30.6 +24.9 72 +44 +45 опасность
перегрева
1011.1 1008.9
12 14.02 штиль 0 6000 м 3/1 450 м
[Cu hum Ci fib]
+28.1 +25.6 86 +41 +41 опасность
перегрева
1013.0 1010.8 +32.0
15 14.02 Ю 2 6000 м 3/1 450 м
[Cu hum Ci fib]
+26.2 +24.8 92 +37 +37 очень
душно
1013.4 1011.2
18 14.02 Ю 2 6000 м 3/1 450 м
[Cu hum Ci fib]
+25.6 +24.5 94 +36 +36 очень
душно
1012.2 1010.0
00 15.02 З 2 14 км 4/1 450 м
[Cu hum Ac trans Ci fib]
+29.2 +26.6 86 +45 +50 опасность
перегрева
1013.7 1011.5 +25.4
03 15.02 СЗ 3 14 км 5/5 420 м
[Cu med, cong Ci fib]
+32.0 +27.6 78 +52 +61 опасность
перегрева
1013.6 1011.4
06 15.02 З 3 10 км осадки на расстоянии 6/5 420 м
[Cu med, cong Ac trans Ci fib]
+30.7 +26.9 80 +48 +54 опасность
перегрева
1011.8 1009.6
09 15.02 ЮЗ 2 14 км 5/1 420 м
[Cu med, cong Ac As Ci fib]
+31.2 +26.2 75 +47 +48 опасность
перегрева
1011.4 1009.2
12 15.02 Ю 1 6000 м 4/1 450 м
[Cu hum Ac trans Ci fib]
+28.5 +26.4 88 +43 +43 опасность
перегрева
1012.8 1010.6 +32.3
15 15.02 штиль 0 6000 м 4/1 450 м
[Cu hum Ac trans Ci fib]
+26.9 +25.7 93 +40 +40 очень
душно
1013.9 1011.6
18 15.02 штиль 0 6000 м 3/1 450 м
[Cu hum Ac trans Ci fib]
+26.0 +25.2 95 +37 +37 очень
душно
1011.9 1009.7
00 16.02 ЮЗ 1 14 км 1/1 450 м
[Cu hum Ci fib]
+29.5 +27.0 86 +46 +53 опасность
перегрева
1013.4 1011.2 +25.4
03 16.02 З 3 14 км 3/3 420 м
[Cu med, cong Ci fib]
+31.8 +27.5 78 +51 +63 опасность
перегрева
1012.8 1010.6
06 16.02 З 2 12 км осадки на расстоянии 5/3 420 м
[Cu hum Ac trans Ci fib]
+33.0 +28.1 76 +54 +64 опасность
перегрева
1011.1 1008.9
09 16.02 штиль 0 8000 м гроза без осадков 5/5 420 м
[Cb cap Ac trans Ci fib]
+26.8 +25.5 93 +39 +40 очень
душно
1010.4 1008.2 4
12 16.02 штиль 0 6000 м {гроза, дождь} 5/4 420 м
[Cu med, cong Ac trans Ci fib]
+26.8 +26.0 95 +40 +40 очень
душно
1011.9 1009.7 +33.0 4
15 16.02 штиль 0 6000 м 1/1 420 м
[Cu hum Ci fib]
+26.4 +25.6 95 +39 +39 очень
душно
1013.0 1010.8
18 16.02 штиль 0 6000 м 1/1 420 м
[Cu hum Ci fib]
+25.9 +25.4 97 +38 +38 очень
душно
1011.2 1009.0
00 17.02 СЗ 2 12 км 5/4 420 м
[Cu hum Ci fib]
+29.0 +27.0 89 +46 +50 опасность
перегрева
1013.3 1011.1 +25.4 4
03 17.02 З 2 14 км 4/3 420 м
[Cu hum Ci fib]
+31.6 +27.5 79 +51 +65 опасность
перегрева
1012.3 1010.1
06 17.02 СЗ 3 12 км гроза без осадков 6/6 400 м
[Cb cap Ci fib]
+32.0 +27.6 78 +52 +57 опасность
перегрева
1010.7 1008.5
09 17.02 З 3 14 км 4/1 420 м
[Cu hum Ci sp]
+31.8 +26.8 75 +49 +50 опасность
перегрева
1009.6 1007.4
12 17.02 Ю 1 6000 м 4/1 420 м
[Cu hum Ci fib]
+28.6 +26.5 88 +44 +44 опасность
перегрева
1010.8 1008.6 +33.1
15 17.02 штиль 0 6000 м 8/3 420 м
[Cu hum Ac As Ci fib]
+27.3 +26.1 93 +41 +41 опасность
перегрева
1011.9 1009.7
18 17.02 Ю 2 1300 м зарница 8/3 400 м
[Cb cap Ac As Ci fib]
+26.5 +25.7 95 +39 +39 очень
душно
1010.7 1008.5
00 18.02 Ю 2 14 км {гроза, дождь} 6/5 400 м
[Cb cap Ac As Ci fib]
+27.8 +25.4 87 +41 +44 опасность
перегрева
1012.8 1010.6 +26.0 0.1
03 18.02 З 2 14 км 8/5 420 м
[Cu med, cong Ci sp]
+32.0 +27.6 78 +52 +62 опасность
перегрева
1012.9 1010.7
06 18.02 ЮЗ 2 14 км {гроза} 6/3 420 м
[Cu hum Ci sp]
+31.5 +26.8 76 +49 +59 опасность
перегрева
1010.7 1008.5
09 18.02 З 3 14 км 5/1 420 м
[Cu hum Ci fib]
+31.2 +26.7 77 +48 +49 опасность
перегрева
1010.7 1008.5
12 18.02 штиль 0 7000 м 1/1 420 м
[Cu hum Ci fib]
+29.1 +26.4 85 +44 +44 опасность
перегрева
1012.6 1010.4 +32.2
15 18.02 Ю 2 7000 м 1/1 420 м
[Cu hum Ci fib]
+27.3 +26.1 93 +41 +41 опасность
перегрева
1013.4 1011.2
18 18.02 штиль 0 7000 м 5/4 420 м
[Cu med, cong Ac As Ci fib]
+26.4 +25.5 95 +39 +39 очень
душно
1012.1 1009.9
00 19.02 штиль 0 14 км 4/1 420 м
[Cu hum Ac trans Ci fib]
+29.1 +26.6 86 +45 +51 опасность
перегрева
1013.7 1011.5 +25.4
03 19.02 З 2 14 км 4/1 420 м
[Cu hum Ac trans Ci fib]
+31.7 +26.7 75 +49 +65 опасность
перегрева
1013.5 1011.3
06 19.02 З 2 14 км 3/1 420 м
[Cu hum Ac trans Ci fib]
+32.3 +26.8 73 +50 +63 опасность
перегрева
1011.5 1009.3

 

Местоположение метеостанции Сабу (Индонезия): широта -10.50 долгота 121.83 высота над уровнем моря 26 м.

В архиве по умолчанию представлена погода в Сабу за последнюю неделю. Архивные данные за месяц целиком и за предыдущие месяцы, начиная с января 2011 года, Вы можете получить, выбрав интересующий диапазон дат из раскрывающегося списка и нажав кнопку "Ввод!".


*Определитесь, кто Вы:
робот инопланетянин человек

Внимание! Время в таблицах - всемирное. Для получения местного времени необходимо прибавить поправку, которая равна 8 ч.

Смотрите также архив погоды в соседних городах и на ближайших метеорологических станциях:

Погода на Роти (Индонезия) (138 км)
Погода в Аэропорту Умбу Механг Кунда (Индонезия) (188 км)
Погода в Купанге (Индонезия) (204 км)
Погода в Маумере (Индонезия) (213 км)
Погода в Рутенге (Индонезия) (257 км)
Погода в Ларантуке (Индонезия) (278 км)
Погода на Алоре (Индонезия) (393 км)
Погода в Биме (Индонезия) (406 км)
Погода на Острове Брауз (Западная Австралия, Австралия) (443 км)
Погода в Сумбава-Бесаре (Индонезия) (534 км)

Пояснения к столбцам:

Ветер - указаны скорость ветра в м/с - средняя за 10 мин, порывы в срок и между сроками (в фигурных скобках) и направление, откуда дует ветер: С - северный, СВ - северо-восточный, В - восточный, ЮВ - юго-восточный, Ю - южный, ЮЗ - юго-западный, З - западный, СЗ - северо-западный.
Видимость - горизонтальная дальность видимости в метрах или километрах. При видимости от 1 до 10 км при отсутствии осадков обычно наблюдается дымка, при ухудшении видимости до 1 км и менее - туман. В сухую погоду видимость может ухудшаться дымом, пылью или мглою.
Явления - указаны атмосферные явления, наблюдавшиеся в срок или в последний час перед сроком; фигурными скобками обозначены явления, наблюдавшиеся между сроками (за 1-3 часа до срока); квадратными скобками обозначены град или гололедные отложения с указанием их диаметра в мм.
Облачность - указаны через наклонную черту общая и нижняя облачность в баллах и высота нижней границы облаков в метрах; квадратными скобками обозначены формы облаков: Ci - перистые, Cs - перисто-слоистые, Cc - перисто-кучевые, Ac - высококучевые, As - высокослоистые, Sc - слоисто-кучевые, Ns - слоисто-дождевые, Cu - кучевые, Cb - кучево-дождевые. Подробнее классификацию облаков см. в Атласе облаков (PDF).
T - Температура воздуха - температура, измеренная на высоте 2 м над землей.
Td - Температура точки росы - температура, при понижении до которой содержащийся в воздухе водяной пар достигнет насыщения.
f - Относительная влажность воздуха - влажноcть воздуха, измеренная на высоте 2 м над землей.
Te - Эффективная температура - температура, которую ощущает одетый по сезону человек в тени. Характеристика душности погоды. При расчете учитывается влияние влажности воздуха и скорости ветра на теплоощущения человека.
Tes - Эффективная температура на солнце - температура, которую ощущает человек, с поправкой на солнечный нагрев. Характеристика знойности погоды. Зависит от высоты солнца над горизонтом, облачности и скорости ветра. Ночью, в пасмурную погоду, а также при ветре 12 м/с и более поправка равна нулю.
P - Атмосферное давление - приведенное к уровню моря атмосферное давление.
Po - Атмосферное давление - измеренное на уровне метеостанции атмосферное давление.
Tmin - Минимальная температура - минимум температуры воздуха на высоте 2 м над землей.
Tmax - Максимальная температура - максимум температуры воздуха на высоте 2 м над землей.
R - Количество осадков - Количество выпавших осадков за период времени, мм. При наведении курсора мыши на число - период времени, за который выпало указанное количество осадков.
R24 - Количество осадков - Количество выпавших осадков за 24 часа, мм.
S - Снежный покров - Высота снежного покрова, см. При наведении курсора мыши на число - состояние снежного покрова и степень покрытия местности в баллах.